Time,TemperatureF,DewpointF,PressureIn,WindDirection,WindDirectionDegrees,WindSpeedMPH,WindSpeedGustMPH,Humidity,HourlyPrecipIn,Conditions,Clouds,dailyrainin,SoftwareType,DateUTC
2013-01-28 00:03:00,29.6,26.2,29.82,SSE,157,0.0,3.0,87,0.00,,,0.00,WUHU216DAVISVP2,2013-01-28 06:03:00,
2013-01-28 00:08:00,29.6,26.2,29.82,SSE,157,0.0,1.0,87,0.00,,,0.00,WUHU216DAVISVP2,2013-01-28 06:08:00,
2013-01-28 00:13:00,29.6,26.2,29.83,SSE,157,0.0,1.0,87,0.00,,,0.00,WUHU216DAVISVP2,2013-01-28 06:13:00,
2013-01-28 00:18:00,29.6,26.2,29.82,SSE,160,0.0,3.0,87,0.00,,,0.00,WUHU216DAVISVP2,2013-01-28 06:18:00,
2013-01-28 00:23:00,29.6,26.4,29.82,SSE,160,0.0,3.0,88,0.00,,,0.00,WUHU216DAVISVP2,2013-01-28 06:23:00,
2013-01-28 00:29:00,29.6,26.4,29.83,SSE,160,0.0,1.0,88,0.00,,,0.00,WUHU216DAVISVP2,2013-01-28 06:29:00,
2013-01-28 00:34:00,29.6,26.4,29.82,SSE,160,0.0,1.0,88,0.00,,,0.00,WUHU216DAVISVP2,2013-01-28 06:34:00,
2013-01-28 00:39:00,29.6,26.4,29.82,SSE,160,0.0,3.0,88,0.00,,,0.00,WUHU216DAVISVP2,2013-01-28 06:39:00,
2013-01-28 00:44:00,29.6,26.4,29.83,SSE,160,3.0,3.0,88,0.00,,,0.00,WUHU216DAVISVP2,2013-01-28 06:44:00,
2013-01-28 00:49:00,29.6,26.4,29.83,SSE,160,0.0,5.0,88,0.00,,,0.00,WUHU216DAVISVP2,2013-01-28 06:49:00,
2013-01-28 00:54:00,29.6,26.4,29.83,SSE,160,0.0,4.0,88,0.00,,,0.00,WUHU216DAVISVP2,2013-01-28 06:54:00,
2013-01-28 00:59:00,29.6,26.4,29.83,SSE,160,0.0,0.0,88,0.00,,,0.00,WUHU216DAVISVP2,2013-01-28 06:59:00,
2013-01-28 01:04:00,29.6,26.4,29.83,SSE,160,0.0,0.0,88,0.00,,,0.00,WUHU216DAVISVP2,2013-01-28 07:04:00,
2013-01-28 01:09:00,29.5,26.3,29.83,SSE,160,0.0,0.0,88,0.00,,,0.00,WUHU216DAVISVP2,2013-01-28 07:09:00,
2013-01-28 01:14:00,29.5,26.3,29.83,SSE,160,0.0,0.0,88,0.00,,,0.00,WUHU216DAVISVP2,2013-01-28 07:14:00,
2013-01-28 01:19:00,29.5,26.3,29.83,SSE,160,0.0,0.0,88,0.00,,,0.00,WUHU216DAVISVP2,2013-01-28 07:19:00,
2013-01-28 01:24:00,29.5,26.3,29.83,SSE,160,0.0,0.0,88,0.00,,,0.00,WUHU216DAVISVP2,2013-01-28 07:24:00,
2013-01-28 01:29:00,29.5,26.3,29.83,SSE,160,0.0,0.0,88,0.00,,,0.00,WUHU216DAVISVP2,2013-01-28 07:29:00,
2013-01-28 01:34:00,29.5,26.3,29.82,SSE,160,0.0,0.0,88,0.00,,,0.00,WUHU216DAVISVP2,2013-01-28 07:34:00,
2013-01-28 01:39:00,29.5,26.3,29.82,SSE,160,0.0,0.0,88,0.00,,,0.00,WUHU216DAVISVP2,2013-01-28 07:39:00,
2013-01-28 01:44:00,29.5,26.3,29.82,SSE,160,0.0,0.0,88,0.00,,,0.00,WUHU216DAVISVP2,2013-01-28 07:44:00,
2013-01-28 01:49:00,29.5,26.3,29.82,SSE,160,0.0,0.0,88,0.00,,,0.00,WUHU216DAVISVP2,2013-01-28 07:49:00,
2013-01-28 01:54:00,29.5,26.3,29.82,SSE,160,0.0,0.0,88,0.00,,,0.00,WUHU216DAVISVP2,2013-01-28 07:54:00,
2013-01-28 01:59:00,29.5,26.3,29.82,SSE,160,0.0,0.0,88,0.00,,,0.00,WUHU216DAVISVP2,2013-01-28 07:59:00,
2013-01-28 02:04:00,29.4,26.2,29.82,SSE,160,0.0,0.0,88,0.00,,,0.00,WUHU216DAVISVP2,2013-01-28 08:04:00,
2013-01-28 02:09:00,29.4,26.2,29.82,SSE,160,0.0,0.0,88,0.00,,,0.00,WUHU216DAVISVP2,2013-01-28 08:09:00,
2013-01-28 02:14:00,29.4,26.2,29.82,SSE,160,0.0,0.0,88,0.00,,,0.00,WUHU216DAVISVP2,2013-01-28 08:14:00,
2013-01-28 02:19:00,29.4,26.2,29.82,SSE,160,0.0,0.0,88,0.00,,,0.00,WUHU216DAVISVP2,2013-01-28 08:19:00,
2013-01-28 02:24:00,29.4,26.2,29.82,SSE,160,0.0,0.0,88,0.00,,,0.00,WUHU216DAVISVP2,2013-01-28 08:24:00,
2013-01-28 02:29:00,29.4,26.2,29.82,SSE,160,0.0,0.0,88,0.00,,,0.00,WUHU216DAVISVP2,2013-01-28 08:29:00,
2013-01-28 02:34:00,29.4,26.2,29.82,SSE,160,0.0,0.0,88,0.00,,,0.00,WUHU216DAVISVP2,2013-01-28 08:34:00,
2013-01-28 02:39:00,29.4,26.2,29.82,SSE,160,0.0,0.0,88,0.00,,,0.00,WUHU216DAVISVP2,2013-01-28 08:39:00,
2013-01-28 02:44:00,29.4,26.2,29.82,SSE,160,0.0,0.0,88,0.00,,,0.00,WUHU216DAVISVP2,2013-01-28 08:44:00,
2013-01-28 02:49:00,29.4,26.2,29.82,SSE,160,0.0,0.0,88,0.00,,,0.00,WUHU216DAVISVP2,2013-01-28 08:49:00,
2013-01-28 02:54:00,29.4,26.2,29.82,SSE,160,0.0,0.0,88,0.00,,,0.00,WUHU216DAVISVP2,2013-01-28 08:54:00,
2013-01-28 02:59:00,29.4,26.2,29.82,SSE,160,0.0,0.0,88,0.00,,,0.00,WUHU216DAVISVP2,2013-01-28 08:59:00,
2013-01-28 03:04:00,29.5,26.3,29.82,SSE,160,0.0,0.0,88,0.00,,,0.00,WUHU216DAVISVP2,2013-01-28 09:04:00,
2013-01-28 03:09:00,29.5,26.3,29.82,SSE,160,0.0,0.0,88,0.00,,,0.00,WUHU216DAVISVP2,2013-01-28 09:09:00,
2013-01-28 03:14:00,29.5,26.3,29.82,SSE,160,0.0,0.0,88,0.00,,,0.00,WUHU216DAVISVP2,2013-01-28 09:14:00,
2013-01-28 03:19:00,29.4,26.2,29.82,SSE,160,0.0,0.0,88,0.00,,,0.00,WUHU216DAVISVP2,2013-01-28 09:19:00,
2013-01-28 03:24:00,29.4,26.2,29.82,SSE,160,0.0,0.0,88,0.00,,,0.00,WUHU216DAVISVP2,2013-01-28 09:24:00,
2013-01-28 03:29:00,29.5,26.3,29.82,SSE,160,0.0,0.0,88,0.00,,,0.00,WUHU216DAVISVP2,2013-01-28 09:29:00,
2013-01-28 03:34:00,29.5,26.3,29.82,SSE,160,0.0,0.0,88,0.00,,,0.00,WUHU216DAVISVP2,2013-01-28 09:34:00,
2013-01-28 03:39:00,29.6,26.4,29.82,SSE,160,0.0,0.0,88,0.00,,,0.00,WUHU216DAVISVP2,2013-01-28 09:39:00,
2013-01-28 03:44:00,29.6,26.4,29.82,SSE,160,0.0,0.0,88,0.00,,,0.00,WUHU216DAVISVP2,2013-01-28 09:44:00,
2013-01-28 03:49:00,29.6,26.4,29.81,SSE,160,0.0,0.0,88,0.00,,,0.00,WUHU216DAVISVP2,2013-01-28 09:49:00,
2013-01-28 03:54:00,29.6,26.4,29.81,SSE,160,0.0,0.0,88,0.00,,,0.00,WUHU216DAVISVP2,2013-01-28 09:54:00,
2013-01-28 03:59:00,29.6,26.4,29.80,SSE,160,0.0,0.0,88,0.00,,,0.00,WUHU216DAVISVP2,2013-01-28 09:59:00,
2013-01-28 04:04:00,29.6,26.4,29.80,SSE,160,0.0,0.0,88,0.00,,,0.00,WUHU216DAVISVP2,2013-01-28 10:04:00,
2013-01-28 04:09:00,29.6,26.4,29.79,SSE,160,0.0,0.0,88,0.00,,,0.00,WUHU216DAVISVP2,2013-01-28 10:09:00,
2013-01-28 04:14:00,29.6,26.4,29.78,SSE,160,0.0,0.0,88,0.00,,,0.00,WUHU216DAVISVP2,2013-01-28 10:14:00,
2013-01-28 04:19:00,29.7,26.5,29.78,ESE,103,0.0,4.0,88,0.00,,,0.00,WUHU216DAVISVP2,2013-01-28 10:19:00,
2013-01-28 04:24:00,29.7,26.5,29.80,ESE,103,0.0,4.0,88,0.00,,,0.00,WUHU216DAVISVP2,2013-01-28 10:24:00,
2013-01-28 04:29:00,29.8,26.9,29.81,South,171,0.0,5.0,89,0.00,,,0.00,WUHU216DAVISVP2,2013-01-28 10:29:00,
2013-01-28 04:34:00,29.8,26.9,29.81,SSE,149,1.0,5.0,89,0.00,,,0.00,WUHU216DAVISVP2,2013-01-28 10:34:00,
2013-01-28 04:39:00,29.8,26.9,29.82,South,176,2.0,5.0,89,0.00,,,0.00,WUHU216DAVISVP2,2013-01-28 10:39:00,
2013-01-28 04:44:00,29.9,27.0,29.82,South,190,1.0,5.0,89,0.00,,,0.00,WUHU216DAVISVP2,2013-01-28 10:44:00,
2013-01-28 04:49:00,29.8,26.9,29.82,South,188,2.0,5.0,89,0.00,,,0.00,WUHU216DAVISVP2,2013-01-28 10:49:00,
2013-01-28 04:54:00,29.8,26.9,29.83,SSW,194,2.0,5.0,89,0.00,,,0.00,WUHU216DAVISVP2,2013-01-28 10:54:00,
2013-01-28 04:59:00,29.7,26.8,29.83,SSW,198,4.0,6.0,89,0.00,,,0.00,WUHU216DAVISVP2,2013-01-28 10:59:00,
2013-01-28 05:04:00,29.7,26.8,29.83,SSW,197,2.0,6.0,89,0.00,,,0.00,WUHU216DAVISVP2,2013-01-28 11:04:00,
2013-01-28 05:09:00,29.7,26.8,29.83,SSW,197,2.0,4.0,89,0.00,,,0.00,WUHU216DAVISVP2,2013-01-28 11:09:00,
2013-01-28 05:14:00,29.6,26.7,29.83,SSW,197,2.0,4.0,89,0.00,,,0.00,WUHU216DAVISVP2,2013-01-28 11:14:00,
2013-01-28 05:19:00,29.6,26.7,29.83,SSW,196,3.0,4.0,89,0.00,,,0.00,WUHU216DAVISVP2,2013-01-28 11:19:00,
2013-01-28 05:24:00,29.5,26.6,29.84,SSW,196,2.0,5.0,89,0.00,,,0.00,WUHU216DAVISVP2,2013-01-28 11:24:00,
2013-01-28 05:29:00,29.5,26.6,29.83,SSW,196,2.0,5.0,89,0.00,,,0.00,WUHU216DAVISVP2,2013-01-28 11:29:00,
2013-01-28 05:34:00,29.4,26.5,29.83,SSW,196,3.0,4.0,89,0.00,,,0.00,WUHU216DAVISVP2,2013-01-28 11:34:00,
2013-01-28 05:39:00,29.4,26.5,29.83,SSW,196,0.0,4.0,89,0.00,,,0.00,WUHU216DAVISVP2,2013-01-28 11:39:00,
2013-01-28 05:44:00,29.4,26.5,29.82,SSW,196,0.0,3.0,89,0.00,,,0.00,WUHU216DAVISVP2,2013-01-28 11:44:00,
2013-01-28 05:49:00,29.4,26.5,29.82,SSW,196,0.0,0.0,89,0.00,,,0.00,WUHU216DAVISVP2,2013-01-28 11:49:00,
2013-01-28 05:54:00,29.4,26.5,29.82,SSW,196,0.0,0.0,89,0.00,,,0.00,WUHU216DAVISVP2,2013-01-28 11:54:00,
2013-01-28 05:59:00,29.4,26.5,29.82,SSW,196,0.0,0.0,89,0.00,,,0.00,WUHU216DAVISVP2,2013-01-28 11:59:00,
2013-01-28 06:04:00,29.4,26.5,29.82,SSW,196,0.0,0.0,89,0.00,,,0.00,WUHU216DAVISVP2,2013-01-28 12:04:00,
2013-01-28 06:09:00,29.5,26.6,29.83,SSW,196,0.0,0.0,89,0.00,,,0.00,WUHU216DAVISVP2,2013-01-28 12:09:00,
2013-01-28 06:14:00,29.5,26.6,29.82,SSW,196,0.0,0.0,89,0.00,,,0.00,WUHU216DAVISVP2,2013-01-28 12:14:00,
2013-01-28 06:19:00,29.5,26.6,29.82,SSW,196,0.0,0.0,89,0.00,,,0.00,WUHU216DAVISVP2,2013-01-28 12:19:00,
2013-01-28 06:24:00,29.5,26.6,29.82,SSW,196,0.0,0.0,89,0.00,,,0.00,WUHU216DAVISVP2,2013-01-28 12:24:00,
2013-01-28 06:29:00,29.5,26.6,29.82,SSW,196,0.0,0.0,89,0.00,,,0.00,WUHU216DAVISVP2,2013-01-28 12:29:00,
2013-01-28 06:34:00,29.6,26.7,29.82,SSW,196,0.0,0.0,89,0.00,,,0.00,WUHU216DAVISVP2,2013-01-28 12:34:00,
2013-01-28 06:39:00,29.5,26.6,29.82,SSW,196,0.0,0.0,89,0.00,,,0.00,WUHU216DAVISVP2,2013-01-28 12:39:00,
2013-01-28 06:44:00,29.5,26.6,29.82,SSW,196,0.0,0.0,89,0.00,,,0.00,WUHU216DAVISVP2,2013-01-28 12:44:00,
2013-01-28 06:49:00,29.4,26.5,29.82,SSW,196,0.0,0.0,89,0.00,,,0.00,WUHU216DAVISVP2,2013-01-28 12:49:00,
2013-01-28 06:54:00,29.4,26.5,29.81,SSW,196,0.0,0.0,89,0.00,,,0.00,WUHU216DAVISVP2,2013-01-28 12:54:00,
2013-01-28 06:59:00,29.5,26.6,29.82,SSW,196,0.0,0.0,89,0.00,,,0.00,WUHU216DAVISVP2,2013-01-28 12:59:00,
2013-01-28 07:04:00,29.5,26.6,29.82,SSW,196,1.0,3.0,89,0.00,,,0.00,WUHU216DAVISVP2,2013-01-28 13:04:00,
2013-01-28 07:09:00,29.5,26.6,29.81,SSW,196,0.0,3.0,89,0.00,,,0.00,WUHU216DAVISVP2,2013-01-28 13:09:00,
2013-01-28 07:14:00,29.6,26.7,29.81,SSW,196,1.0,4.0,89,0.00,,,0.00,WUHU216DAVISVP2,2013-01-28 13:14:00,
2013-01-28 07:19:00,29.6,26.7,29.81,SSW,196,1.0,4.0,89,0.00,,,0.00,WUHU216DAVISVP2,2013-01-28 13:19:00,
2013-01-28 07:24:00,29.6,26.7,29.81,SSW,196,0.0,3.0,89,0.00,,,0.00,WUHU216DAVISVP2,2013-01-28 13:24:00,
2013-01-28 07:29:00,29.6,26.7,29.81,SSW,196,0.0,2.0,89,0.00,,,0.00,WUHU216DAVISVP2,2013-01-28 13:29:00,
2013-01-28 07:34:00,29.6,26.7,29.81,SSW,196,0.0,2.0,89,0.00,,,0.00,WUHU216DAVISVP2,2013-01-28 13:34:00,
2013-01-28 07:39:00,29.6,26.7,29.81,SSW,196,2.0,3.0,89,0.00,,,0.00,WUHU216DAVISVP2,2013-01-28 13:39:00,
2013-01-28 07:44:00,29.6,26.7,29.80,SSW,196,0.0,3.0,89,0.00,,,0.00,WUHU216DAVISVP2,2013-01-28 13:44:00,
2013-01-28 07:49:00,29.6,26.7,29.80,SSW,196,0.0,2.0,89,0.00,,,0.00,WUHU216DAVISVP2,2013-01-28 13:49:00,
2013-01-28 07:54:00,29.6,26.7,29.80,SSW,196,0.0,0.0,89,0.00,,,0.00,WUHU216DAVISVP2,2013-01-28 13:54:00,
2013-01-28 07:59:00,29.6,26.7,29.80,SSW,196,0.0,0.0,89,0.00,,,0.00,WUHU216DAVISVP2,2013-01-28 13:59:00,
2013-01-28 08:04:00,29.6,26.7,29.80,SSW,196,0.0,0.0,89,0.00,,,0.00,WUHU216DAVISVP2,2013-01-28 14:04:00,
2013-01-28 08:09:00,29.6,26.7,29.80,SSW,196,0.0,0.0,89,0.00,,,0.00,WUHU216DAVISVP2,2013-01-28 14:09:00,
2013-01-28 08:14:00,29.6,26.7,29.80,SSW,196,0.0,0.0,89,0.00,,,0.00,WUHU216DAVISVP2,2013-01-28 14:14:00,
2013-01-28 08:19:00,29.6,26.7,29.81,SSW,196,0.0,0.0,89,0.00,,,0.00,WUHU216DAVISVP2,2013-01-28 14:19:00,
2013-01-28 08:24:00,29.6,26.7,29.82,SSW,196,3.0,3.0,89,0.00,,,0.00,WUHU216DAVISVP2,2013-01-28 14:24:00,
2013-01-28 08:29:00,29.6,26.7,29.82,SSW,196,3.0,4.0,89,0.00,,,0.00,WUHU216DAVISVP2,2013-01-28 14:29:00,
2013-01-28 08:34:00,29.6,26.7,29.83,SSW,196,0.0,4.0,89,0.00,,,0.00,WUHU216DAVISVP2,2013-01-28 14:34:00,
2013-01-28 08:39:00,29.6,26.7,29.83,SSW,200,0.0,6.0,89,0.00,,,0.00,WUHU216DAVISVP2,2013-01-28 14:39:00,
2013-01-28 08:44:00,29.5,26.6,29.84,SSW,200,2.0,6.0,89,0.00,,,0.00,WUHU216DAVISVP2,2013-01-28 14:44:00,
2013-01-28 08:49:00,29.5,26.6,29.84,SSW,199,1.0,5.0,89,0.00,,,0.00,WUHU216DAVISVP2,2013-01-28 14:49:00,
2013-01-28 08:54:00,29.4,26.5,29.84,SSW,194,1.0,6.0,89,0.00,,,0.00,WUHU216DAVISVP2,2013-01-28 14:54:00,
2013-01-28 08:59:00,29.5,26.6,29.84,SSW,194,0.0,6.0,89,0.00,,,0.00,WUHU216DAVISVP2,2013-01-28 14:59:00,
2013-01-28 09:04:00,29.5,26.6,29.84,SSW,194,0.0,3.0,89,0.00,,,0.00,WUHU216DAVISVP2,2013-01-28 15:04:00,
2013-01-28 09:09:00,29.4,26.5,29.84,SSW,194,0.0,2.0,89,0.00,,,0.00,WUHU216DAVISVP2,2013-01-28 15:09:00,
2013-01-28 09:14:00,29.5,26.6,29.84,SSW,194,0.0,2.0,89,0.00,,,0.00,WUHU216DAVISVP2,2013-01-28 15:14:00,
2013-01-28 09:19:00,29.6,26.7,29.84,SSW,194,0.0,0.0,89,0.00,,,0.00,WUHU216DAVISVP2,2013-01-28 15:19:00,
2013-01-28 09:24:00,29.7,26.8,29.84,SSW,194,0.0,0.0,89,0.00,,,0.00,WUHU216DAVISVP2,2013-01-28 15:24:00,
2013-01-28 09:29:00,29.7,26.8,29.83,SSW,194,0.0,2.0,89,0.00,,,0.00,WUHU216DAVISVP2,2013-01-28 15:29:00,
2013-01-28 09:34:00,29.7,26.8,29.83,SSW,206,0.0,2.0,89,0.00,,,0.00,WUHU216DAVISVP2,2013-01-28 15:34:00,
2013-01-28 09:39:00,29.6,26.7,29.82,SSW,207,0.0,0.0,89,0.00,,,0.00,WUHU216DAVISVP2,2013-01-28 15:39:00,
2013-01-28 09:44:00,29.4,26.5,29.83,SSW,207,0.0,0.0,89,0.00,,,0.00,WUHU216DAVISVP2,2013-01-28 15:44:00,
2013-01-28 09:49:00,29.2,26.3,29.83,SSW,207,0.0,0.0,89,0.00,,,0.00,WUHU216DAVISVP2,2013-01-28 15:49:00,
2013-01-28 09:54:00,29.0,26.1,29.83,SSW,207,0.0,0.0,89,0.00,,,0.00,WUHU216DAVISVP2,2013-01-28 15:54:00,
2013-01-28 09:59:00,28.9,26.0,29.84,SSW,207,0.0,2.0,89,0.00,,,0.00,WUHU216DAVISVP2,2013-01-28 15:59:00,
2013-01-28 10:04:00,28.8,25.9,29.83,SSW,207,0.0,2.0,89,0.00,,,0.00,WUHU216DAVISVP2,2013-01-28 16:04:00,
2013-01-28 10:09:00,28.5,25.6,29.83,SSW,211,0.0,3.0,89,0.00,,,0.00,WUHU216DAVISVP2,2013-01-28 16:09:00,
2013-01-28 10:14:00,28.3,25.4,29.83,SSW,210,0.0,3.0,89,0.00,,,0.00,WUHU216DAVISVP2,2013-01-28 16:14:00,
2013-01-28 10:19:00,27.8,24.9,29.84,WSW,248,1.0,3.0,89,0.00,,,0.00,WUHU216DAVISVP2,2013-01-28 16:19:00,
2013-01-28 10:24:00,27.3,24.4,29.83,WSW,248,2.0,4.0,89,0.00,,,0.00,WUHU216DAVISVP2,2013-01-28 16:24:00,
2013-01-28 10:29:00,26.9,24.0,29.84,West,273,4.0,5.0,89,0.00,,,0.00,WUHU216DAVISVP2,2013-01-28 16:29:00,
2013-01-28 10:34:00,26.7,23.8,29.84,West,273,0.0,5.0,89,0.00,,,0.00,WUHU216DAVISVP2,2013-01-28 16:34:00,
2013-01-28 10:39:00,26.8,23.9,29.84,West,274,0.0,6.0,89,0.00,,,0.00,WUHU216DAVISVP2,2013-01-28 16:39:00,
2013-01-28 10:44:00,26.7,23.8,29.84,West,273,0.0,6.0,89,0.00,,,0.00,WUHU216DAVISVP2,2013-01-28 16:44:00,
2013-01-28 10:49:00,26.7,23.8,29.85,West,272,1.0,4.0,89,0.00,,,0.00,WUHU216DAVISVP2,2013-01-28 16:49:00,
2013-01-28 10:54:00,26.8,23.9,29.85,West,273,0.0,5.0,89,0.00,,,0.00,WUHU216DAVISVP2,2013-01-28 16:54:00,
2013-01-28 10:59:00,27.0,24.1,29.84,West,273,0.0,5.0,89,0.00,,,0.00,WUHU216DAVISVP2,2013-01-28 16:59:00,
2013-01-28 11:04:00,27.1,24.2,29.84,West,273,0.0,0.0,89,0.00,,,0.00,WUHU216DAVISVP2,2013-01-28 17:04:00,
2013-01-28 11:09:00,27.1,24.2,29.83,West,272,0.0,0.0,89,0.00,,,0.00,WUHU216DAVISVP2,2013-01-28 17:09:00,
2013-01-28 11:14:00,27.2,24.3,29.84,West,273,0.0,2.0,89,0.00,,,0.00,WUHU216DAVISVP2,2013-01-28 17:14:00,
2013-01-28 11:19:00,27.3,24.4,29.84,West,273,0.0,2.0,89,0.00,,,0.00,WUHU216DAVISVP2,2013-01-28 17:19:00,
2013-01-28 11:24:00,27.6,24.7,29.85,West,272,0.0,0.0,89,0.00,,,0.00,WUHU216DAVISVP2,2013-01-28 17:24:00,
2013-01-28 11:29:00,27.9,25.0,29.85,West,272,0.0,0.0,89,0.00,,,0.00,WUHU216DAVISVP2,2013-01-28 17:29:00,
2013-01-28 11:34:00,28.0,25.1,29.85,West,273,0.0,0.0,89,0.00,,,0.00,WUHU216DAVISVP2,2013-01-28 17:34:00,
2013-01-28 11:39:00,28.1,25.2,29.85,West,273,0.0,0.0,89,0.00,,,0.00,WUHU216DAVISVP2,2013-01-28 17:39:00,
2013-01-28 11:44:00,28.3,25.4,29.85,West,272,0.0,1.0,89,0.00,,,0.00,WUHU216DAVISVP2,2013-01-28 17:44:00,
2013-01-28 11:49:00,28.4,25.5,29.84,West,273,0.0,1.0,89,0.00,,,0.00,WUHU216DAVISVP2,2013-01-28 17:49:00,
2013-01-28 11:54:00,28.5,25.6,29.83,West,273,0.0,0.0,89,0.00,,,0.00,WUHU216DAVISVP2,2013-01-28 17:54:00,
2013-01-28 11:59:00,28.6,25.7,29.83,West,273,0.0,0.0,89,0.00,,,0.00,WUHU216DAVISVP2,2013-01-28 17:59:00,
2013-01-28 12:04:00,28.8,25.9,29.83,West,273,0.0,0.0,89,0.00,,,0.00,WUHU216DAVISVP2,2013-01-28 18:04:00,
2013-01-28 12:09:00,28.8,25.9,29.83,West,273,0.0,0.0,89,0.00,,,0.00,WUHU216DAVISVP2,2013-01-28 18:09:00,
2013-01-28 12:14:00,28.8,25.9,29.83,West,272,0.0,0.0,89,0.00,,,0.00,WUHU216DAVISVP2,2013-01-28 18:14:00,
2013-01-28 12:19:00,28.8,25.9,29.83,West,272,0.0,0.0,89,0.00,,,0.00,WUHU216DAVISVP2,2013-01-28 18:19:00,
2013-01-28 12:24:00,28.9,26.0,29.83,West,273,0.0,0.0,89,0.00,,,0.00,WUHU216DAVISVP2,2013-01-28 18:24:00,
2013-01-28 12:29:00,29.0,26.1,29.83,West,273,0.0,0.0,89,0.00,,,0.00,WUHU216DAVISVP2,2013-01-28 18:29:00,
2013-01-28 12:34:00,29.1,26.2,29.83,West,273,0.0,0.0,89,0.00,,,0.00,WUHU216DAVISVP2,2013-01-28 18:34:00,
2013-01-28 12:39:00,29.2,26.3,29.83,West,272,0.0,0.0,89,0.00,,,0.00,WUHU216DAVISVP2,2013-01-28 18:39:00,
2013-01-28 12:44:00,29.2,26.3,29.82,West,273,0.0,0.0,89,0.00,,,0.00,WUHU216DAVISVP2,2013-01-28 18:44:00,
2013-01-28 12:49:00,29.2,26.3,29.81,West,272,0.0,0.0,89,0.00,,,0.00,WUHU216DAVISVP2,2013-01-28 18:49:00,
2013-01-28 12:54:00,29.2,26.3,29.81,West,273,0.0,0.0,89,0.00,,,0.00,WUHU216DAVISVP2,2013-01-28 18:54:00,
2013-01-28 12:59:00,29.3,26.4,29.81,West,272,0.0,0.0,89,0.00,,,0.00,WUHU216DAVISVP2,2013-01-28 18:59:00,
2013-01-28 13:04:00,29.2,26.3,29.81,West,273,0.0,0.0,89,0.00,,,0.00,WUHU216DAVISVP2,2013-01-28 19:04:00,
2013-01-28 13:09:00,29.2,26.3,29.81,West,273,0.0,0.0,89,0.00,,,0.00,WUHU216DAVISVP2,2013-01-28 19:09:00,
2013-01-28 13:14:00,29.2,26.3,29.82,West,273,0.0,0.0,89,0.00,,,0.00,WUHU216DAVISVP2,2013-01-28 19:14:00,
2013-01-28 13:19:00,29.2,26.3,29.82,West,273,0.0,0.0,89,0.00,,,0.00,WUHU216DAVISVP2,2013-01-28 19:19:00,
2013-01-28 13:24:00,29.2,26.3,29.82,West,272,0.0,0.0,89,0.00,,,0.00,WUHU216DAVISVP2,2013-01-28 19:24:00,
2013-01-28 13:29:00,29.2,26.3,29.81,West,273,0.0,0.0,89,0.00,,,0.00,WUHU216DAVISVP2,2013-01-28 19:29:00,
2013-01-28 13:34:00,29.1,26.2,29.81,West,273,0.0,0.0,89,0.00,,,0.00,WUHU216DAVISVP2,2013-01-28 19:34:00,
2013-01-28 13:39:00,29.2,26.3,29.81,West,273,0.0,0.0,89,0.00,,,0.00,WUHU216DAVISVP2,2013-01-28 19:39:00,
2013-01-28 13:44:00,29.2,26.3,29.80,West,273,0.0,3.0,89,0.00,,,0.00,WUHU216DAVISVP2,2013-01-28 19:44:00,
2013-01-28 13:49:00,29.1,26.2,29.81,West,273,0.0,3.0,89,0.00,,,0.00,WUHU216DAVISVP2,2013-01-28 19:49:00,
2013-01-28 13:55:00,29.1,26.2,29.81,West,272,0.0,2.0,89,0.00,,,0.00,WUHU216DAVISVP2,2013-01-28 19:55:00,
2013-01-28 14:00:00,29.1,26.2,29.81,West,273,0.0,2.0,89,0.00,,,0.00,WUHU216DAVISVP2,2013-01-28 20:00:00,
2013-01-28 14:05:00,29.1,26.2,29.81,West,273,0.0,0.0,89,0.00,,,0.00,WUHU216DAVISVP2,2013-01-28 20:05:00,
2013-01-28 14:10:00,29.1,26.2,29.81,West,273,0.0,0.0,89,0.00,,,0.00,WUHU216DAVISVP2,2013-01-28 20:10:00,
2013-01-28 14:15:00,29.1,26.2,29.81,West,272,0.0,0.0,89,0.00,,,0.00,WUHU216DAVISVP2,2013-01-28 20:15:00,
2013-01-28 14:20:00,29.1,26.2,29.81,West,273,0.0,0.0,89,0.00,,,0.00,WUHU216DAVISVP2,2013-01-28 20:20:00,
2013-01-28 14:25:00,29.2,26.3,29.82,West,273,0.0,0.0,89,0.00,,,0.00,WUHU216DAVISVP2,2013-01-28 20:25:00,
2013-01-28 14:30:00,29.2,26.0,29.82,West,272,0.0,0.0,88,0.00,,,0.00,WUHU216DAVISVP2,2013-01-28 20:30:00,
2013-01-28 14:35:00,29.4,26.2,29.82,West,273,0.0,0.0,88,0.00,,,0.00,WUHU216DAVISVP2,2013-01-28 20:35:00,
2013-01-28 14:40:00,29.3,26.4,29.83,West,273,1.0,4.0,89,0.00,,,0.00,WUHU216DAVISVP2,2013-01-28 20:40:00,
2013-01-28 14:45:00,29.0,25.9,29.82,West,273,0.0,4.0,88,0.00,,,0.00,WUHU216DAVISVP2,2013-01-28 20:45:00,
2013-01-28 14:50:00,29.0,25.9,29.82,West,272,0.0,4.0,88,0.00,,,0.00,WUHU216DAVISVP2,2013-01-28 20:50:00,
2013-01-28 14:55:00,29.1,25.9,29.82,West,273,0.0,1.0,88,0.00,,,0.00,WUHU216DAVISVP2,2013-01-28 20:55:00,
2013-01-28 15:00:00,29.0,25.9,29.82,West,273,0.0,1.0,88,0.00,,,0.00,WUHU216DAVISVP2,2013-01-28 21:00:00,
2013-01-28 15:05:00,28.9,25.8,29.82,West,259,2.0,5.0,88,0.00,,,0.00,WUHU216DAVISVP2,2013-01-28 21:05:00,
2013-01-28 15:10:00,28.6,25.5,29.83,WSW,257,1.0,5.0,88,0.00,,,0.00,WUHU216DAVISVP2,2013-01-28 21:10:00,
2013-01-28 15:15:00,28.3,25.2,29.83,WSW,239,3.0,4.0,88,0.00,,,0.00,WUHU216DAVISVP2,2013-01-28 21:15:00,
2013-01-28 15:20:00,28.1,25.0,29.83,WSW,239,0.0,4.0,88,0.00,,,0.00,WUHU216DAVISVP2,2013-01-28 21:20:00,
2013-01-28 15:25:00,28.0,24.6,29.82,WSW,242,0.0,3.0,87,0.00,,,0.00,WUHU216DAVISVP2,2013-01-28 21:25:00,
2013-01-28 15:30:00,27.9,24.5,29.82,WSW,242,0.0,3.0,87,0.00,,,0.00,WUHU216DAVISVP2,2013-01-28 21:30:00,
2013-01-28 15:35:00,27.9,24.5,29.82,WSW,242,0.0,3.0,87,0.00,,,0.00,WUHU216DAVISVP2,2013-01-28 21:35:00,
2013-01-28 15:40:00,27.8,24.4,29.82,WSW,242,0.0,1.0,87,0.00,,,0.00,WUHU216DAVISVP2,2013-01-28 21:40:00,
2013-01-28 15:45:00,27.8,24.4,29.82,WSW,242,0.0,3.0,87,0.00,,,0.00,WUHU216DAVISVP2,2013-01-28 21:45:00,
2013-01-28 15:50:00,27.6,24.2,29.81,WSW,242,0.0,3.0,87,0.00,,,0.00,WUHU216DAVISVP2,2013-01-28 21:50:00,
2013-01-28 15:55:00,27.7,24.3,29.81,WSW,242,0.0,0.0,87,0.00,,,0.00,WUHU216DAVISVP2,2013-01-28 21:55:00,
2013-01-28 16:00:00,27.7,24.3,29.81,WSW,242,0.0,0.0,87,0.00,,,0.00,WUHU216DAVISVP2,2013-01-28 22:00:00,
2013-01-28 16:05:00,27.8,24.4,29.80,WSW,242,0.0,0.0,87,0.00,,,0.00,WUHU216DAVISVP2,2013-01-28 22:05:00,
2013-01-28 16:10:00,27.8,24.4,29.80,WSW,242,0.0,0.0,87,0.00,,,0.00,WUHU216DAVISVP2,2013-01-28 22:10:00,
2013-01-28 16:15:00,27.8,24.4,29.80,WSW,242,0.0,0.0,87,0.00,,,0.00,WUHU216DAVISVP2,2013-01-28 22:15:00,
2013-01-28 16:20:00,27.8,24.4,29.81,WSW,242,0.0,0.0,87,0.00,,,0.00,WUHU216DAVISVP2,2013-01-28 22:20:00,
2013-01-28 16:25:00,27.8,24.4,29.81,WSW,242,0.0,0.0,87,0.00,,,0.00,WUHU216DAVISVP2,2013-01-28 22:25:00,
2013-01-28 16:30:00,27.9,24.5,29.81,WSW,242,0.0,0.0,87,0.00,,,0.00,WUHU216DAVISVP2,2013-01-28 22:30:00,
2013-01-28 16:35:00,27.9,24.5,29.82,WSW,242,0.0,0.0,87,0.00,,,0.00,WUHU216DAVISVP2,2013-01-28 22:35:00,
2013-01-28 16:40:00,27.8,24.4,29.81,WSW,242,1.0,2.0,87,0.00,,,0.00,WUHU216DAVISVP2,2013-01-28 22:40:00,
2013-01-28 16:45:00,27.6,24.2,29.81,WSW,245,3.0,4.0,87,0.00,,,0.00,WUHU216DAVISVP2,2013-01-28 22:45:00,
2013-01-28 16:50:00,27.3,23.9,29.82,West,271,2.0,5.0,87,0.00,,,0.00,WUHU216DAVISVP2,2013-01-28 22:50:00,
2013-01-28 16:55:00,27.0,23.3,29.82,West,281,3.0,5.0,86,0.00,,,0.00,WUHU216DAVISVP2,2013-01-28 22:55:00,
2013-01-28 17:00:00,26.6,23.2,29.82,West,281,0.0,5.0,87,0.00,,,0.00,WUHU216DAVISVP2,2013-01-28 23:00:00,
2013-01-28 17:05:00,26.4,22.7,29.82,West,281,0.0,4.0,86,0.00,,,0.00,WUHU216DAVISVP2,2013-01-28 23:05:00,
2013-01-28 17:10:00,26.2,22.8,29.82,West,281,1.0,4.0,87,0.00,,,0.00,WUHU216DAVISVP2,2013-01-28 23:10:00,
2013-01-28 17:15:00,26.1,22.5,29.82,West,281,0.0,5.0,86,0.00,,,0.00,WUHU216DAVISVP2,2013-01-28 23:15:00,
2013-01-28 17:20:00,25.9,22.3,29.82,West,281,0.0,5.0,86,0.00,,,0.00,WUHU216DAVISVP2,2013-01-28 23:20:00,
2013-01-28 17:25:00,25.8,22.4,29.81,West,281,0.0,0.0,87,0.00,,,0.00,WUHU216DAVISVP2,2013-01-28 23:25:00,
2013-01-28 17:30:00,25.6,22.2,29.81,West,281,0.0,0.0,87,0.00,,,0.00,WUHU216DAVISVP2,2013-01-28 23:30:00,
2013-01-28 17:35:00,25.6,22.2,29.81,West,281,0.0,0.0,87,0.00,,,0.00,WUHU216DAVISVP2,2013-01-28 23:35:00,
2013-01-28 17:40:00,25.5,22.1,29.81,West,281,0.0,0.0,87,0.00,,,0.00,WUHU216DAVISVP2,2013-01-28 23:40:00,
2013-01-28 17:45:00,25.5,22.1,29.81,West,281,0.0,0.0,87,0.00,,,0.00,WUHU216DAVISVP2,2013-01-28 23:45:00,
2013-01-28 17:50:00,25.6,22.2,29.81,West,281,0.0,0.0,87,0.00,,,0.00,WUHU216DAVISVP2,2013-01-28 23:50:00,
2013-01-28 17:55:00,25.6,22.2,29.81,West,281,0.0,0.0,87,0.00,,,0.00,WUHU216DAVISVP2,2013-01-28 23:55:00,
2013-01-28 18:00:00,25.6,22.2,29.81,West,281,0.0,0.0,87,0.00,,,0.00,WUHU216DAVISVP2,2013-01-29 00:00:00,
2013-01-28 18:05:00,25.6,22.2,29.82,West,281,0.0,0.0,87,0.00,,,0.00,WUHU216DAVISVP2,2013-01-29 00:05:00,
2013-01-28 18:10:00,25.6,22.2,29.82,West,281,0.0,0.0,87,0.00,,,0.00,WUHU216DAVISVP2,2013-01-29 00:10:00,
2013-01-28 18:15:00,25.6,22.2,29.82,West,281,0.0,0.0,87,0.00,,,0.00,WUHU216DAVISVP2,2013-01-29 00:15:00,
2013-01-28 18:20:00,25.5,22.1,29.82,West,281,0.0,0.0,87,0.00,,,0.00,WUHU216DAVISVP2,2013-01-29 00:20:00,
2013-01-28 18:25:00,25.5,22.1,29.82,West,281,0.0,2.0,87,0.00,,,0.00,WUHU216DAVISVP2,2013-01-29 00:25:00,
2013-01-28 18:30:00,25.4,22.0,29.81,West,281,0.0,2.0,87,0.00,,,0.00,WUHU216DAVISVP2,2013-01-29 00:30:00,
2013-01-28 18:35:00,25.4,22.0,29.81,West,281,0.0,0.0,87,0.00,,,0.00,WUHU216DAVISVP2,2013-01-29 00:35:00,
2013-01-28 18:40:00,25.4,22.0,29.81,West,281,0.0,0.0,87,0.00,,,0.00,WUHU216DAVISVP2,2013-01-29 00:40:00,
2013-01-28 18:45:00,25.3,21.9,29.81,West,281,0.0,0.0,87,0.00,,,0.00,WUHU216DAVISVP2,2013-01-29 00:45:00,
2013-01-28 18:50:00,25.3,21.9,29.81,West,281,0.0,0.0,87,0.00,,,0.00,WUHU216DAVISVP2,2013-01-29 00:50:00,
2013-01-28 18:55:00,25.3,21.9,29.80,West,281,0.0,0.0,87,0.00,,,0.00,WUHU216DAVISVP2,2013-01-29 00:55:00,
2013-01-28 19:00:00,25.3,21.9,29.80,West,281,0.0,0.0,87,0.00,,,0.00,WUHU216DAVISVP2,2013-01-29 01:00:00,
2013-01-28 19:05:00,25.3,21.9,29.80,West,281,0.0,3.0,87,0.00,,,0.00,WUHU216DAVISVP2,2013-01-29 01:05:00,
2013-01-28 19:10:00,25.3,21.9,29.80,West,281,0.0,3.0,87,0.00,,,0.00,WUHU216DAVISVP2,2013-01-29 01:10:00,
2013-01-28 19:15:00,25.3,21.9,29.80,West,281,0.0,0.0,87,0.00,,,0.00,WUHU216DAVISVP2,2013-01-29 01:15:00,
2013-01-28 19:20:00,25.2,21.8,29.81,West,281,0.0,2.0,87,0.00,,,0.00,WUHU216DAVISVP2,2013-01-29 01:20:00,
2013-01-28 19:25:00,25.2,21.8,29.81,West,281,2.0,3.0,87,0.00,,,0.00,WUHU216DAVISVP2,2013-01-29 01:25:00,
2013-01-28 19:30:00,25.2,21.8,29.81,West,281,1.0,3.0,87,0.00,,,0.00,WUHU216DAVISVP2,2013-01-29 01:30:00,
2013-01-28 19:35:00,25.2,21.8,29.81,West,281,1.0,4.0,87,0.00,,,0.00,WUHU216DAVISVP2,2013-01-29 01:35:00,
2013-01-28 19:40:00,25.2,21.8,29.81,West,281,1.0,4.0,87,0.00,,,0.00,WUHU216DAVISVP2,2013-01-29 01:40:00,
2013-01-28 19:45:00,25.2,21.8,29.81,West,281,0.0,5.0,87,0.00,,,0.00,WUHU216DAVISVP2,2013-01-29 01:45:00,
2013-01-28 19:50:00,25.2,21.8,29.81,West,281,0.0,5.0,87,0.00,,,0.00,WUHU216DAVISVP2,2013-01-29 01:50:00,
2013-01-28 19:55:00,25.2,21.8,29.81,WNW,282,0.0,0.0,87,0.00,,,0.00,WUHU216DAVISVP2,2013-01-29 01:55:00,
2013-01-28 20:00:00,25.2,21.8,29.81,West,281,0.0,0.0,87,0.00,,,0.00,WUHU216DAVISVP2,2013-01-29 02:00:00,
2013-01-28 20:05:00,25.2,21.8,29.81,West,281,0.0,0.0,87,0.00,,,0.00,WUHU216DAVISVP2,2013-01-29 02:05:00,
2013-01-28 20:10:00,25.2,21.8,29.81,West,281,0.0,0.0,87,0.00,,,0.00,WUHU216DAVISVP2,2013-01-29 02:10:00,
2013-01-28 20:15:00,25.1,21.7,29.81,West,281,0.0,0.0,87,0.00,,,0.00,WUHU216DAVISVP2,2013-01-29 02:15:00,
2013-01-28 20:20:00,25.1,21.7,29.81,West,281,0.0,0.0,87,0.00,,,0.00,WUHU216DAVISVP2,2013-01-29 02:20:00,
2013-01-28 20:25:00,25.1,22.0,29.80,West,281,0.0,0.0,88,0.00,,,0.00,WUHU216DAVISVP2,2013-01-29 02:25:00,
2013-01-28 20:30:00,25.1,22.0,29.80,West,281,0.0,0.0,88,0.00,,,0.00,WUHU216DAVISVP2,2013-01-29 02:30:00,
2013-01-28 20:35:00,25.0,21.9,29.80,WNW,282,0.0,0.0,88,0.00,,,0.00,WUHU216DAVISVP2,2013-01-29 02:35:00,
2013-01-28 20:40:00,25.1,22.0,29.80,West,281,0.0,0.0,88,0.00,,,0.00,WUHU216DAVISVP2,2013-01-29 02:40:00,
2013-01-28 20:45:00,25.0,21.9,29.80,West,281,0.0,0.0,88,0.00,,,0.00,WUHU216DAVISVP2,2013-01-29 02:45:00,
2013-01-28 20:50:00,25.0,21.9,29.79,WNW,282,0.0,1.0,88,0.00,,,0.00,WUHU216DAVISVP2,2013-01-29 02:50:00,
2013-01-28 20:55:00,25.0,21.9,29.79,WNW,282,0.0,1.0,88,0.00,,,0.00,WUHU216DAVISVP2,2013-01-29 02:55:00,
2013-01-28 21:00:00,25.0,21.9,29.79,West,281,0.0,0.0,88,0.00,,,0.00,WUHU216DAVISVP2,2013-01-29 03:00:00,
2013-01-28 21:05:00,25.0,21.9,29.78,WNW,282,0.0,0.0,88,0.00,,,0.00,WUHU216DAVISVP2,2013-01-29 03:05:00,
2013-01-28 21:10:00,24.9,21.8,29.78,West,281,0.0,0.0,88,0.00,,,0.00,WUHU216DAVISVP2,2013-01-29 03:10:00,
2013-01-28 21:15:00,24.9,21.8,29.78,WNW,282,0.0,0.0,88,0.00,,,0.00,WUHU216DAVISVP2,2013-01-29 03:15:00,
2013-01-28 21:20:00,24.9,21.8,29.78,WNW,282,0.0,0.0,88,0.00,,,0.00,WUHU216DAVISVP2,2013-01-29 03:20:00,
2013-01-28 21:25:00,25.0,21.9,29.78,West,281,0.0,0.0,88,0.00,,,0.00,WUHU216DAVISVP2,2013-01-29 03:25:00,
2013-01-28 21:30:00,25.0,21.6,29.79,WNW,282,0.0,0.0,87,0.00,,,0.00,WUHU216DAVISVP2,2013-01-29 03:30:00,
2013-01-28 21:35:00,24.9,21.8,29.78,West,281,0.0,0.0,88,0.00,,,0.00,WUHU216DAVISVP2,2013-01-29 03:35:00,
2013-01-28 21:40:00,24.9,21.8,29.78,WNW,282,0.0,1.0,88,0.00,,,0.00,WUHU216DAVISVP2,2013-01-29 03:40:00,
2013-01-28 21:45:00,24.9,21.8,29.78,WNW,282,0.0,1.0,88,0.00,,,0.00,WUHU216DAVISVP2,2013-01-29 03:45:00,
2013-01-28 21:50:00,24.9,21.8,29.78,West,281,0.0,0.0,88,0.00,,,0.00,WUHU216DAVISVP2,2013-01-29 03:50:00,
2013-01-28 21:55:00,25.0,21.9,29.78,West,281,0.0,0.0,88,0.00,,,0.00,WUHU216DAVISVP2,2013-01-29 03:55:00,
2013-01-28 22:00:00,25.0,21.9,29.77,WNW,282,0.0,0.0,88,0.00,,,0.00,WUHU216DAVISVP2,2013-01-29 04:00:00,
2013-01-28 22:05:00,25.0,21.9,29.77,WNW,282,0.0,0.0,88,0.00,,,0.00,WUHU216DAVISVP2,2013-01-29 04:05:00,
2013-01-28 22:10:00,25.0,21.9,29.77,West,281,0.0,0.0,88,0.00,,,0.00,WUHU216DAVISVP2,2013-01-29 04:10:00,
2013-01-28 22:15:00,24.9,21.5,29.76,WNW,292,3.0,4.0,87,0.00,,,0.00,WUHU216DAVISVP2,2013-01-29 04:15:00,
2013-01-28 22:20:00,24.9,21.8,29.76,NNE,13,0.0,4.0,88,0.00,,,0.00,WUHU216DAVISVP2,2013-01-29 04:20:00,
2013-01-28 22:25:00,24.9,21.8,29.76,NNE,13,1.0,4.0,88,0.00,,,0.00,WUHU216DAVISVP2,2013-01-29 04:25:00,
2013-01-28 22:30:00,24.9,21.8,29.75,NNE,13,0.0,4.0,88,0.00,,,0.00,WUHU216DAVISVP2,2013-01-29 04:30:00,
2013-01-28 22:35:00,24.9,21.8,29.75,NNE,13,1.0,3.0,88,0.00,,,0.00,WUHU216DAVISVP2,2013-01-29 04:35:00,
2013-01-28 22:40:00,24.8,21.7,29.75,NNE,13,0.0,3.0,88,0.00,,,0.00,WUHU216DAVISVP2,2013-01-29 04:40:00,
2013-01-28 22:45:00,24.8,21.4,29.75,NNE,13,4.0,4.0,87,0.00,,,0.00,WUHU216DAVISVP2,2013-01-29 04:45:00,
2013-01-28 22:50:00,24.8,21.4,29.74,NNE,13,2.0,4.0,87,0.00,,,0.00,WUHU216DAVISVP2,2013-01-29 04:50:00,
2013-01-28 22:55:00,24.7,21.3,29.75,NNE,13,0.0,3.0,87,0.00,,,0.00,WUHU216DAVISVP2,2013-01-29 04:55:00,
2013-01-28 23:01:00,24.7,21.3,29.75,NNE,13,0.0,2.0,87,0.00,,,0.00,WUHU216DAVISVP2,2013-01-29 05:01:00,
2013-01-28 23:03:00,24.7,21.3,29.75,NNE,13,0.0,2.0,87,0.00,,,0.00,WUHU216DAVISVP2,2013-01-29 05:03:00,
2013-01-28 23:08:00,24.7,21.3,29.75,NNE,13,0.0,2.0,87,0.00,,,0.00,WUHU216DAVISVP2,2013-01-29 05:08:00,
2013-01-28 23:13:00,24.7,21.3,29.75,NNE,13,0.0,0.0,87,0.00,,,0.00,WUHU216DAVISVP2,2013-01-29 05:13:00,
2013-01-28 23:18:00,24.8,21.4,29.75,NNE,13,0.0,0.0,87,0.00,,,0.00,WUHU216DAVISVP2,2013-01-29 05:18:00,
2013-01-28 23:23:00,24.7,21.3,29.75,NNE,13,0.0,0.0,87,0.00,,,0.00,WUHU216DAVISVP2,2013-01-29 05:23:00,
2013-01-28 23:28:00,24.8,21.4,29.75,NNE,13,0.0,0.0,87,0.00,,,0.00,WUHU216DAVISVP2,2013-01-29 05:28:00,
2013-01-28 23:33:00,24.7,21.3,29.75,NNE,13,0.0,0.0,87,0.00,,,0.00,WUHU216DAVISVP2,2013-01-29 05:33:00,
2013-01-28 23:38:00,24.7,21.3,29.75,NNE,13,0.0,0.0,87,0.00,,,0.00,WUHU216DAVISVP2,2013-01-29 05:38:00,
2013-01-28 23:43:00,24.7,21.3,29.75,NNE,13,0.0,0.0,87,0.00,,,0.00,WUHU216DAVISVP2,2013-01-29 05:43:00,
2013-01-28 23:48:00,24.7,21.3,29.75,NW,318,0.0,2.0,87,0.00,,,0.00,WUHU216DAVISVP2,2013-01-29 05:48:00,
2013-01-28 23:53:00,24.7,21.3,29.75,NW,304,0.0,3.0,87,0.00,,,0.00,WUHU216DAVISVP2,2013-01-29 05:53:00,
2013-01-28 23:58:00,24.7,21.3,29.75,WNW,300,0.0,3.0,87,0.00,,,0.00,WUHU216DAVISVP2,2013-01-29 05:58:00,